• Join FlightAware (Why Join?)
  • Login
  • US Flag GB Flag 
00:36 EST


 

Airport Tracker/Info


-or-


 

Live Flight TrackerFlight Track Log ✈ SWA862 ✈ 20-Apr-2013 ✈ KIND - KPHX

Flight Track Log - Related Links

Times and Time Zones

All times are in EDT time to prevent confusion due to time zone crossing. See the SWA862 flight status page for this flight to view local times or setup timezone preferences in your user account.

Time Position Orientation Groundspeed Altitude Reporting Facility
EDT Latitude Longitude Course Direction KTS MPH feet Rate Location/Type
07:48 39.7000 -86.3333 218° Southwest 174 200 1,900  Level Indianapolis TRACON
07:48 39.6667 -86.3667 218° Southwest 207 238 3,200 2,040 Climbing Indianapolis TRACON
07:49 39.6567 -86.4375 260° West 237 273 5,400 2,700 Climbing Indianapolis Center
07:50 39.6383 -86.5167 253° West 232 267 8,400 2,640 Climbing Indianapolis Center
07:51 39.6214 -86.6019 256° West 235 270 10,800 1,680 Climbing Indianapolis Center
07:52 39.6011 -86.6981 255° West 249 287 11,900 1,620 Climbing Indianapolis Center
07:53 39.5775 -86.8150 255° West 288 331 14,100 1,920 Climbing Indianapolis Center
07:54 39.5767 -86.9400 270° West 320 368 15,900 1,800 Climbing Indianapolis Center
07:55 39.5797 -87.0647 272° West 335 386 17,800 1,620 Climbing Indianapolis Center
07:56 39.5814 -87.1889 271° West 342 394 19,200 1,320 Climbing Indianapolis Center
07:57 39.5822 -87.3189 271° West 351 404 20,600 1,320 Climbing Indianapolis Center
07:58 39.5833 -87.4517 271° West 361 415 22,000 1,320 Climbing Indianapolis Center
07:59 39.5853 -87.5892 271° West 370 426 23,300 1,500 Climbing Indianapolis Center
08:00 39.5858 -87.7250 270° West 376 433 25,100 1,680 Climbing Indianapolis Center
08:01 39.5864 -87.8567 270° West 371 427 26,800 1,500 Climbing Indianapolis Center
08:02 39.5867 -87.9628 270° West 363 418 27,900 1,260 Climbing Kansas City Center
08:03 39.5869 -88.0919 270° West 359 413 29,100 1,200 Climbing Kansas City Center
08:04 39.5864 -88.2211 270° West 359 413 30,400 1,140 Climbing Kansas City Center
08:05 39.5869 -88.3475 270° West 355 409 31,400 840 Climbing Kansas City Center
08:06 39.5836 -88.4758 268° West 354 407 32,100 840 Climbing Kansas City Center
08:07 39.5814 -88.6192 269° West 360 414 33,200 900 Climbing Kansas City Center
08:08 39.5772 -88.7478 268° West 359 413 34,000 360 Climbing Kansas City Center
08:09 39.5747 -88.8722 269° West 350 403 34,000  Level Kansas City Center
08:10 39.5717 -88.9967 268° West 348 400 34,000  Level Kansas City Center
08:11 39.5683 -89.1219 268° West 347 399 34,000  Level Kansas City Center
08:12 39.5653 -89.2497 268° West 349 402 34,000  Level Kansas City Center
08:13 39.5611 -89.3747 268° West 351 404 34,000  Level Kansas City Center
08:14 39.5583 -89.5008 268° West 352 405 34,000  Level Kansas City Center
08:15 39.5544 -89.6267 268° West 351 404 34,000  Level Kansas City Center
08:16 39.5403 -89.7528 262° West 356 410 34,000  Level Kansas City Center
08:17 39.5236 -89.8778 260° West 354 407 34,000  Level Kansas City Center
08:18 39.5075 -90.0008 260° West 351 404 34,000  Level Kansas City Center
08:19 39.4881 -90.1492 260° West 351 404 34,000  Level Kansas City Center
08:20 39.4714 -90.2731 260° West 351 404 34,000  Level Kansas City Center
08:22 39.4550 -90.3950 260° West 349 402 34,000  Level Kansas City Center
08:23 39.4381 -90.5186 260° West 349 402 34,000  Level Kansas City Center
08:24 39.4214 -90.6403 260° West 348 400 34,000  Level Kansas City Center
08:25 39.4036 -90.7614 259° West 347 399 34,000  Level Kansas City Center
08:26 39.3869 -90.8831 260° West 345 397 34,000  Level Kansas City Center
08:27 39.3692 -91.0047 259° West 347 399 34,000  Level Kansas City Center
08:28 39.3514 -91.1272 259° West 348 400 34,000  Level Kansas City Center
08:29 39.3339 -91.2500 260° West 349 402 34,000  Level Kansas City Center
08:30 39.3158 -91.3731 259° West 350 403 34,000  Level Kansas City Center
08:31 39.2950 -91.5203 260° West 350 403 34,000  Level Kansas City Center
08:32 39.2767 -91.6431 259° West 350 403 34,000  Level Kansas City Center
08:33 39.2594 -91.7617 259° West 352 405 34,000  Level Kansas City Center
08:34 39.2406 -91.8903 259° West 351 404 34,000  Level Kansas City Center
08:35 39.2225 -92.0114 259° West 347 399 34,000  Level Kansas City Center
08:36 39.2033 -92.1400 259° West 355 409 34,000  Level Kansas City Center
08:37 39.1842 -92.2664 259° West 359 413 34,000  Level Kansas City Center
08:38 39.1650 -92.3911 259° West 357 411 34,000  Level Kansas City Center
08:39 39.1453 -92.5156 258° West 356 410 34,000  Level Kansas City Center
08:40 39.1247 -92.6414 258° West 358 412 34,000  Level Kansas City Center
08:41 39.1028 -92.7831 259° West 358 412 34,000  Level Kansas City Center
08:42 39.0836 -92.9064 259° West 356 410 34,000  Level Kansas City Center
08:43 39.0633 -93.0308 258° West 357 411 34,000  Level Kansas City Center
08:44 39.0422 -93.1547 258° West 356 410 34,000  Level Kansas City Center
08:45 39.0231 -93.2800 259° West 358 412 34,000  Level Kansas City Center
08:46 39.0006 -93.4158 258° West 356 410 34,000  Level Kansas City Center
08:47 38.9792 -93.5422 258° West 359 413 34,000  Level Kansas City Center
08:48 38.9578 -93.6683 258° West 361 415 34,000  Level Kansas City Center
08:49 38.9386 -93.7928 259° West 356 410 34,000  Level Kansas City Center
08:50 38.9186 -93.9133 258° West 359 413 34,000  Level Kansas City Center
08:51 38.8983 -94.0333 258° West 358 412 34,000  Level Kansas City Center
08:52 38.8744 -94.1731 258° West 359 413 34,000  Level Kansas City Center
08:53 38.8544 -94.2908 258° West 354 407 34,000  Level Kansas City Center
08:54 38.8292 -94.4311 257° West 359 413 34,000  Level Kansas City Center
08:55 38.8097 -94.5494 258° West 356 410 34,000  Level Kansas City Center
08:56 38.7889 -94.6683 257° West 357 411 34,000  Level Kansas City Center
08:57 38.7672 -94.7875 257° West 357 411 34,000  Level Kansas City Center
08:58 38.7433 -94.9275 258° West 358 412 34,000  Level Kansas City Center
08:59 38.7214 -95.0469 257° West 358 412 34,000  Level Kansas City Center
09:00 38.6958 -95.1867 257° West 359 413 34,000  Level Kansas City Center
09:01 38.6742 -95.3075 257° West 361 415 34,000  Level Kansas City Center
09:02 38.6517 -95.4281 257° West 363 418 34,000  Level Kansas City Center
09:03 38.6261 -95.5692 257° West 362 417 34,000  Level Kansas City Center
09:04 38.6044 -95.6906 257° West 366 421 34,000  Level Kansas City Center
09:05 38.5822 -95.8119 257° West 366 421 34,000  Level Kansas City Center
09:06 38.5550 -95.9525 256° West 366 421 34,000  Level Kansas City Center
09:07 38.5339 -96.0758 258° West 367 422 34,000  Level Kansas City Center
09:08 38.5100 -96.1958 256° West 365 420 34,000  Level Kansas City Center
09:09 38.4828 -96.3372 256° West 368 423 34,000  Level Kansas City Center
09:10 38.4594 -96.4592 256° West 369 425 34,000  Level Kansas City Center
09:11 38.4322 -96.5939 256° West 374 430 34,000  Level Kansas City Center
09:12 38.4078 -96.7225 256° West 373 429 34,000  Level Kansas City Center
09:13 38.3825 -96.8506 256° West 374 430 34,000  Level Kansas City Center
09:14 38.3572 -96.9789 256° West 374 430 34,000  Level Kansas City Center
09:15 38.3328 -97.1075 256° West 374 430 34,000  Level Kansas City Center
09:16 38.3067 -97.2361 256° West 376 433 34,000  Level Kansas City Center
09:17 38.2811 -97.3639 256° West 375 432 34,000  Level Kansas City Center
09:18 38.2553 -97.4900 255° West 371 427 34,000  Level Kansas City Center
09:19 38.2289 -97.6175 255° West 373 429 34,000  Level Kansas City Center
09:20 38.2031 -97.7439 255° West 373 429 34,000  Level Kansas City Center
09:21 38.1717 -97.8961 255° West 375 432 34,000  Level Kansas City Center
09:22 38.1489 -98.0050 255° West 375 432 34,000  Level Kansas City Center
09:23 38.1164 -98.1586 255° West 374 430 34,000  Level Kansas City Center
09:24 38.0928 -98.2753 256° West 376 433 34,000  Level Kansas City Center
09:26 38.0658 -98.4025 255° West 375 432 34,000  Level Kansas City Center
09:27 38.0386 -98.5308 255° West 378 435 34,000  Level Kansas City Center
09:28 38.0103 -98.6608 255° West 382 440 34,000  Level Kansas City Center
09:29 37.9839 -98.7886 255° West 378 435 34,000  Level Kansas City Center
09:30 37.9564 -98.9175 255° West 378 435 34,000  Level Kansas City Center
09:31 37.9214 -99.0725 254° West 381 438 34,000  Level Kansas City Center
09:32 37.8936 -99.2006 255° West 379 436 34,000  Level Kansas City Center
09:33 37.8656 -99.3286 255° West 378 435 34,000  Level Kansas City Center
09:34 37.8367 -99.4561 254° West 378 435 34,000  Level Kansas City Center
09:35 37.8061 -99.5936 254° West 377 434 34,000  Level Kansas City Center
09:36 37.7797 -99.7161 255° West 377 434 34,000  Level Kansas City Center
09:37 37.7522 -99.8375 254° West 376 433 34,000  Level Kansas City Center
09:38 37.7203 -99.9792 254° West 375 432 34,000  Level Kansas City Center
09:39 37.6931 -100.1003 254° West 374 430 34,000  Level Kansas City Center
09:40 37.6600 -100.2406 253° West 373 429 34,000  Level Kansas City Center
09:41 37.6325 -100.3606 254° West 373 429 34,000  Level Kansas City Center
09:42 37.6042 -100.4831 254° West 372 428 34,000  Level Kansas City Center
09:43 37.5753 -100.6089 254° West 373 429 34,000  Level Kansas City Center
09:44 37.5453 -100.7342 253° West 373 429 34,000  Level Kansas City Center
09:45 37.5161 -100.8606 254° West 375 432 34,000 300 Level Kansas City Center
09:46 37.4814 -101.0083 254° West 375 432 34,700 780 Climbing Kansas City Center
09:47 37.4533 -101.1272 253° West 370 426 35,600 600 Climbing Kansas City Center
09:48 37.4250 -101.2444 253° West 367 422 36,000 180 Climbing Kansas City Center
09:49 37.3925 -101.3808 253° West 365 420 36,000  Level Kansas City Center
09:50 37.3642 -101.4986 253° West 365 420 36,000  Level Kansas City Center
09:51 37.3306 -101.6353 253° West 366 421 36,000  Level Kansas City Center
09:52 37.3022 -101.7519 253° West 367 422 36,000  Level Kansas City Center
09:53 37.2739 -101.8708 253° West 368 423 36,000  Level Kansas City Center
09:54 37.2419 -102.0092 254° West 368 423 36,000  Level Albuquerque Center
09:55 37.2131 -102.1261 253° West 368 423 36,000  Level Albuquerque Center
09:56 37.1808 -102.2550 253° West 369 425 36,000  Level Albuquerque Center
09:57 37.1506 -102.3725 252° West 369 425 36,000  Level Albuquerque Center
09:58 37.1203 -102.4972 253° West 369 425 36,000  Level Albuquerque Center
09:59 37.0872 -102.6267 252° West 369 425 36,000  Level Albuquerque Center
10:00 37.0572 -102.7450 252° West 371 427 36,000  Level Albuquerque Center
10:01 37.0264 -102.8639 252° West 374 430 36,000  Level Albuquerque Center
10:02 36.9903 -103.0050 252° West 380 437 36,000  Level Albuquerque Center
10:03 36.9592 -103.1253 252° West 378 435 36,000  Level Albuquerque Center
10:04 36.9278 -103.2467 252° West 381 438 36,000  Level Albuquerque Center
10:05 36.8906 -103.3878 252° West 382 440 36,000  Level Albuquerque Center
10:06 36.8583 -103.5117 252° West 387 445 36,000  Level Albuquerque Center
10:07 36.8267 -103.6347 252° West 387 445 36,000  Level Albuquerque Center
10:08 36.7875 -103.7792 251° West 391 450 36,000  Level Albuquerque Center
10:09 36.7556 -103.9008 252° West 386 444 36,000  Level Albuquerque Center
10:10 36.7228 -104.0236 252° West 388 447 36,000  Level Albuquerque Center
10:11 36.6850 -104.1633 251° West 382 440 36,000  Level Albuquerque Center
10:12 36.6514 -104.2839 251° West 382 440 36,000  Level Albuquerque Center
10:13 36.6186 -104.4064 252° West 377 434 36,000  Level Albuquerque Center
10:14 36.5850 -104.5292 251° West 374 430 36,000  Level Albuquerque Center
10:15 36.5506 -104.6533 251° West 377 434 36,000  Level Albuquerque Center
10:16 36.5172 -104.7764 251° West 375 432 36,000  Level Albuquerque Center
10:17 36.4831 -104.8981 251° West 372 428 36,000  Level Albuquerque Center
10:18 36.4425 -105.0178 247° West 373 429 36,000  Level Albuquerque Center
10:19 36.3947 -105.1581 247° West 376 433 36,000  Level Albuquerque Center
10:20 36.3556 -105.2753 247° West 369 425 36,000  Level Albuquerque Center
10:22 36.3150 -105.3950 247° West 372 428 36,000  Level Albuquerque Center
10:23 36.2739 -105.5153 247° West 375 432 36,000  Level Albuquerque Center
10:24 36.2369 -105.6239 247° West 378 435 36,000  Level Albuquerque Center
10:25 36.1972 -105.7450 248° West 380 437 36,000  Level Albuquerque Center
10:26 36.1553 -105.8658 247° West 382 440 36,000  Level Albuquerque Center
10:27 36.1147 -105.9847 247° West 379 436 36,000  Level Albuquerque Center
10:28 36.0650 -106.1264 247° West 375 432 36,000  Level Albuquerque Center
10:29 36.0269 -106.2458 249° West 376 433 36,000  Level Albuquerque Center
10:30 35.9844 -106.3592 245° Southwest 368 423 36,000  Level Albuquerque Center
10:31 35.9444 -106.4758 247° West 369 425 36,000  Level Albuquerque Center
10:32 35.9025 -106.5961 247° West 369 425 36,000  Level Albuquerque Center
10:33 35.8575 -106.7228 246° West 363 418 36,000  Level Albuquerque Center
10:34 35.8194 -106.8306 246° West 360 414 36,000  Level Albuquerque Center
10:35 35.7814 -106.9386 247° West 359 413 36,000  Level Albuquerque Center
10:36 35.7378 -107.0656 247° West 360 414 36,000  Level Albuquerque Center
10:37 35.6981 -107.1736 246° West 361 415 36,000  Level Albuquerque Center
10:38 35.6594 -107.2817 246° West 360 414 36,000  Level Albuquerque Center
10:39 35.6139 -107.4083 246° West 361 415 36,000  Level Albuquerque Center
10:40 35.5747 -107.5158 246° West 361 415 36,000  Level Albuquerque Center
10:41 35.5294 -107.6422 246° West 361 415 36,000  Level Albuquerque Center
10:42 35.4903 -107.7500 246° West 361 415 36,000  Level Albuquerque Center
10:43 35.4447 -107.8753 246° West 360 414 36,000  Level Albuquerque Center
10:44 35.4283 -107.9875 260° West 354 407 36,000  Level Albuquerque Center
10:45 35.4231 -108.1008 267° West 348 400 36,000  Level Albuquerque Center
10:46 35.4167 -108.2331 267° West 347 399 36,000  Level Albuquerque Center
10:47 35.4119 -108.3464 267° West 347 399 36,000  Level Albuquerque Center
10:48 35.4061 -108.4797 267° West 349 402 36,000  Level Albuquerque Center
10:49 35.4008 -108.5931 267° West 347 399 36,000  Level Albuquerque Center
10:50 35.3658 -108.7025 249° West 363 418 36,000  Level Albuquerque Center
10:51 35.2978 -108.8228 235° Southwest 381 438 36,000  Level Albuquerque Center
10:52 35.2386 -108.9269 235° Southwest 385 443 36,000  Level Albuquerque Center
10:53 35.1706 -109.0508 236° Southwest 389 448 36,000  Level Albuquerque Center
10:54 35.1114 -109.1564 236° Southwest 391 450 36,000  Level Albuquerque Center
10:55 35.0517 -109.2597 235° Southwest 389 448 36,000  Level Albuquerque Center
10:56 34.9839 -109.3797 235° Southwest 385 443 36,000  Level Albuquerque Center
10:57 34.9261 -109.4817 235° Southwest 382 440 36,000  Level Albuquerque Center
10:58 34.8572 -109.5972 234° Southwest 378 435 36,000  Level Albuquerque Center
10:59 34.7994 -109.6978 235° Southwest 378 435 36,000  Level Albuquerque Center
11:00 34.7417 -109.7975 235° Southwest 377 434 36,000  Level Albuquerque Center
11:02 34.6847 -109.9161 240° Southwest 368 423 36,000  Level Albuquerque Center
11:03 34.6472 -110.0228 247° West 360 414 36,000  Level Albuquerque Center
11:04 34.6039 -110.1514 248° West 365 420 36,000  Level Albuquerque Center
11:05 34.5653 -110.2558 246° West 359 413 36,000 -780 Level Albuquerque Center
11:06 34.5156 -110.3694 242° Southwest 345 397 34,500 -1,500 Descending Albuquerque Center
11:07 34.4839 -110.4644 248° West 357 411 33,000 -840 Descending Albuquerque Center
11:08 34.4386 -110.5922 247° West 349 402 32,800 -1,500 Descending Albuquerque Center
11:09 34.3917 -110.7044 243° Southwest 368 423 30,000 -2,340 Descending Albuquerque Center
11:10 34.3397 -110.8164 241° Southwest 380 437 28,000 -1,500 Descending Albuquerque Center
11:11 34.2683 -110.9075 227° Southwest 373 429 26,900 -1,560 Descending Albuquerque Center
11:12 34.1992 -110.9975 227° Southwest 368 423 24,800 -2,100 Descending Albuquerque Center
11:13 34.1292 -111.0872 227° Southwest 366 421 22,600 -2,220 Descending Albuquerque Center
11:14 34.0486 -111.1903 227° Southwest 357 411 20,300 -2,040 Descending Albuquerque Center
11:15 33.9853 -111.2717 227° Southwest 341 392 18,400 -1,860 Descending Albuquerque Center
11:16 33.9247 -111.3492 227° Southwest 321 369 16,500 -1,500 Descending Albuquerque Center
11:17 33.8683 -111.4272 229° Southwest 309 356 15,400 -1,320 Descending Albuquerque Center
11:18 33.8264 -111.5103 239° Southwest 289 333 13,800 -1,560 Descending Albuquerque Center
11:19 33.7839 -111.5908 238° Southwest 284 327 12,200 -1,620 Descending Albuquerque Center
11:20 33.7244 -111.6653 226° Southwest 313 360 10,500 -1,320 Descending Albuquerque Center
11:21 33.6575 -111.7275 218° Southwest 303 349 9,500 -780 Descending Albuquerque Center
11:22 33.5903 -111.8086 225° Southwest 286 329 9,000 -300 Descending Albuquerque Center
11:23 33.5497 -111.8864 238° Southwest 276 318 8,900 -240 Descending Albuquerque Center
11:24 33.5206 -111.9628 245° Southwest 253 291 8,600 -780 Descending Albuquerque Center
11:25 33.5181 -112.0417 268° West 238 274 7,300 -840 Descending Albuquerque Center
11:26 33.5178 -112.1142 270° West 219 252 6,900 -780 Descending Albuquerque Center
11:27 33.5158 -112.1739 268° West 184 212 5,800 -1,380 Descending Albuquerque Center
11:28 33.4714 -112.1956 202° Southwest 205 236 4,100 -1,380 Descending Albuquerque Center
11:29 33.4408 -112.1439 125° Southeast 178 205 3,000 -960 Descending Albuquerque Center
11:30 33.4408 -112.0928 90° East 159 183 2,200 -780 Descending Albuquerque Center
11:31 33.4411 -112.0458 90° East 145 167 1,400 -780 Descending Albuquerque Center